Location: Pardubice
(50.0330°N, 15.7830°E)
Time: 09:57:20
(UTC+02:00)

Transit 2A - All Passes

Search period start: 07 October 2024 00:00
Search period end: 17 October 2024 00:00
Orbit: 590 x 960 km, 66.7° (Epoch: 06 October)

Date Brightness Start Highest point End Pass type
(mag) Time Alt. Az. Time Alt. Az. Time Alt. Az.
07 Oct - 00:54:18 10° WNW 00:56:26 12° W 00:58:29 10° WSW visible
07 Oct - 13:50:34 10° S 13:56:25 47° ESE 14:02:29 10° NE daylight
07 Oct - 15:33:39 10° WSW 15:39:41 48° NW 15:45:51 10° NNE daylight
07 Oct - 17:19:43 10° WNW 17:24:25 21° NNW 17:29:05 10° NNE daylight
07 Oct - 19:05:53 10° NNW 19:09:58 17° N 19:13:58 10° NE visible
07 Oct - 20:49:44 10° NNW 20:55:12 30° NNE 21:00:21 10° E visible
07 Oct - 22:32:56 10° NW 22:39:08 85° SW 22:44:48 10° SSE visible
08 Oct - 00:17:32 10° WNW 00:21:20 18° WSW 00:24:57 10° SW visible
08 Oct - 13:15:38 10° S 13:21:07 35° ESE 13:26:47 10° NE daylight
08 Oct - 14:57:53 10° SW 15:04:03 61° NW 15:10:23 10° NNE daylight
08 Oct - 16:43:30 10° WNW 16:48:31 24° NNW 16:53:31 10° NNE daylight
08 Oct - 18:29:58 10° NW 18:33:59 17° N 18:37:55 10° NE daylight
08 Oct - 20:14:14 10° NNW 20:19:22 26° NNE 20:24:15 10° E visible
08 Oct - 21:57:25 10° NW 22:03:38 74° NE 22:09:18 10° SE visible
08 Oct - 23:41:25 10° NW 23:46:11 25° WSW 23:50:38 10° SSW visible
09 Oct - 12:40:58 10° SSE 12:45:52 26° ESE 12:50:56 10° NE daylight
09 Oct - 14:22:15 10° SW 14:28:29 78° NW 14:34:54 10° NE daylight
09 Oct - 16:07:20 10° W 16:12:40 28° NNW 16:18:00 10° NNE daylight
09 Oct - 17:53:57 10° NW 17:58:00 17° N 18:01:57 10° NE daylight
09 Oct - 19:38:41 10° NNW 19:43:30 22° NNE 19:48:06 10° ENE visible
09 Oct - 21:21:56 10° NNW 21:28:02 57° NE 21:33:40 10° SE visible
09 Oct - 23:05:34 10° NW 23:10:58 34° WSW 23:15:57 10° S visible
10 Oct - 12:06:39 10° SE 12:10:42 18° ESE 12:14:50 10° ENE daylight
10 Oct - 13:46:46 10° SSW 13:52:59 81° SE 13:59:23 10° NE daylight
10 Oct - 15:31:13 10° W 15:36:51 33° NW 15:42:31 10° NNE daylight
10 Oct - 17:17:49 10° NW 17:22:00 18° N 17:26:07 10° NNE daylight
10 Oct - 19:03:05 10° NNW 19:07:35 20° NNE 19:11:54 10° ENE visible
10 Oct - 20:46:27 10° NNW 20:52:24 44° NE 20:57:52 10° ESE visible
10 Oct - 22:29:51 10° NW 22:35:41 48° WSW 22:40:59 10° S visible
11 Oct - 11:33:02 10° SE 11:35:35 13° E 11:38:11 10° ENE daylight
11 Oct - 13:11:27 10° SSW 13:17:33 62° ESE 13:23:49 10° NE daylight
11 Oct - 14:55:13 10° WSW 15:01:06 40° NW 15:07:02 10° NNE daylight
11 Oct - 16:41:36 10° WNW 16:46:02 19° NNW 16:50:24 10° NNE daylight
11 Oct - 18:27:23 10° NNW 18:31:38 18° NNE 18:35:43 10° NE daylight
11 Oct - 20:10:59 10° NNW 20:16:40 36° NE 20:21:58 10° ESE visible
11 Oct - 21:54:14 10° NW 22:00:18 66° WSW 22:05:48 10° SSE visible
11 Oct - 23:39:54 10° WNW 23:42:10 12° W 23:44:24 10° WSW visible
12 Oct - 12:36:18 10° S 12:42:10 46° ESE 12:48:11 10° NE daylight
12 Oct - 14:19:19 10° WSW 14:25:24 49° NW 14:31:34 10° NNE daylight
12 Oct - 16:05:21 10° WNW 16:10:05 21° NNW 16:14:47 10° NNE daylight
12 Oct - 17:51:35 10° NW 17:55:38 17° N 17:59:34 10° NE daylight
12 Oct - 19:35:29 10° NNW 19:40:53 29° NNE 19:45:57 10° E visible
12 Oct - 21:18:40 10° NW 21:24:51 87° SW 21:30:27 10° SSE visible
12 Oct - 23:03:12 10° WNW 23:07:05 18° WSW 23:10:44 10° SW visible
13 Oct - 12:01:24 10° S 12:06:51 34° ESE 12:12:28 10° NE daylight
13 Oct - 13:43:33 10° SW 13:49:46 63° NW 13:56:06 10° NNE daylight
13 Oct - 15:29:07 10° WNW 15:34:10 24° NNW 15:39:12 10° NNE daylight
13 Oct - 17:15:39 10° NW 17:19:38 17° N 17:23:30 10° NE daylight
13 Oct - 18:59:58 10° NNW 19:05:02 25° NNE 19:09:49 10° E visible
13 Oct - 20:43:08 10° NW 20:49:19 71° NE 20:54:55 10° SE visible
13 Oct - 22:27:07 10° NW 22:31:54 26° WSW 22:36:21 10° SSW visible
14 Oct - 11:26:44 10° SSE 11:31:36 25° ESE 11:36:35 10° NE daylight
14 Oct - 13:07:55 10° SW 13:14:11 81° NW 13:20:35 10° NE daylight
14 Oct - 14:52:56 10° W 14:58:19 28° NNW 15:03:40 10° NNE daylight
14 Oct - 16:39:35 10° NW 16:43:37 17° N 16:47:34 10° NE daylight
14 Oct - 18:24:24 10° NNW 18:29:07 22° NNE 18:33:39 10° ENE daylight
14 Oct - 20:07:38 10° NNW 20:13:42 55° NE 20:19:14 10° ESE visible
14 Oct - 21:51:15 10° NW 21:56:39 35° WSW 22:01:37 10° S visible
15 Oct - 10:52:28 10° SE 10:56:25 18° ESE 11:00:25 10° ENE daylight
15 Oct - 12:32:26 10° SSW 12:38:40 79° ESE 12:45:03 10° NE daylight
15 Oct - 14:16:49 10° W 14:22:30 33° NW 14:28:10 10° NNE daylight
15 Oct - 16:03:26 10° NW 16:07:37 18° N 16:11:44 10° NNE daylight
15 Oct - 17:48:46 10° NNW 17:53:11 19° NNE 17:57:26 10° ENE daylight
15 Oct - 19:32:09 10° NNW 19:38:01 43° NE 19:43:26 10° ESE visible
15 Oct - 21:15:32 10° NW 21:21:20 49° WSW 21:26:37 10° S visible
16 Oct - 10:18:58 10° ESE 10:21:17 12° E 10:23:38 10° ENE daylight
16 Oct - 11:57:07 10° SSW 12:03:13 59° ESE 12:09:28 10° NE daylight
16 Oct - 13:40:48 10° WSW 13:46:44 41° NW 13:52:41 10° NNE daylight
16 Oct - 15:27:11 10° WNW 15:31:37 19° NNW 15:36:00 10° NNE daylight
16 Oct - 17:13:03 10° NNW 17:17:12 18° N 17:21:13 10° NE daylight
16 Oct - 18:56:40 10° NNW 19:02:16 34° NE 19:07:29 10° E visible
16 Oct - 20:39:54 10° NW 20:45:56 68° WSW 20:51:24 10° SSE visible
16 Oct - 22:25:24 10° WNW 22:27:51 13° W 22:30:13 10° SW visible
